Tracking 25709 objects as of 23-May-2022
HD Live streaming from Space Station
objects crossing your sky now

COSMOS 1750

Track COSMOS 1750 now!
10-day predictions
COSMOS 1750 is classified as:


NORAD ID: 16760
Int'l Code: 1986-042C
Perigee: 1,415.0 km
Apogee: 1,477.2 km
Inclination: 74.0 °
Period: 114.6 minutes
Semi major axis: 7817 km
RCS: 0.6995 m2 (medium)
Launch date: June 6, 1986
Source: Commonwealth of Independent States (former USSR) (CIS)
Launch site: PLESETSK MISSILE AND SPACE COMPLEX (PKMTR)
aabbcc
Your satellite tracking list
Your tracking list is empty




NASA's NSSDC Master Catalog

Two Line Element Set (TLE):
1 16760U 86042C   22143.55080262 -.00000003  00000-0  83313-4 0  9996
2 16760  74.0171 296.0348 0039841 316.2305 108.2298 12.56129809649056
Source of the keplerian elements: AFSPC